�N����,����,�~����,�C��,���x,�C��,����,���ϕ���,�ő�u�ԕ���,�ő厞����,���˗�,�I�_���x,�n�����x,�ő啗���N��,DTYPE
"21/11/09","00:10",0.0,18.8,73.1,1005.5,91.5,1.8,5.2,123.1,0.00,13.9,16.7,"00:05:12",1
"21/11/09","00:20",0.0,18.8,73.2,1005.7,81.6,1.6,4.9,93.7,0.00,13.9,16.8,"00:10:32",1
"21/11/09","00:30",0.0,18.6,74.1,1005.5,114.9,1.2,3.5,96.9,0.00,13.9,16.7,"00:29:20",1
"21/11/09","00:40",0.4,18.2,76.1,1005.2,43.7,0.6,1.4,99.1,0.00,14.0,16.6,"00:32:16",1
"21/11/09","00:50",0.8,17.7,78.8,1005.2,4.1,0.8,1.8,347.6,0.00,14.0,16.9,"00:46:48",1
"21/11/09","01:00",0.6,17.1,81.4,1005.0,13.8,0.8,2.0,359.0,0.00,13.9,16.5,"00:58:24",1
"21/11/09","01:10",0.6,16.9,83.5,1005.0,350.3,0.7,1.6,28.8,0.00,14.1,16.7,"01:05:30",1
"21/11/09","01:20",0.4,16.7,85.0,1005.0,279.0,1.1,1.7,266.1,0.00,14.2,16.5,"01:11:38",1
"21/11/09","01:30",1.6,16.4,86.1,1005.2,317.0,0.7,1.7,264.4,0.00,14.1,16.6,"01:21:14",1
"21/11/09","01:40",1.4,16.3,87.2,1004.5,289.0,1.1,1.6,310.4,0.00,14.2,16.7,"01:33:52",1
"21/11/09","01:50",0.6,16.3,88.1,1005.0,286.4,1.1,1.9,251.8,0.00,14.4,16.6,"01:42:00",1
"21/11/09","02:00",0.6,16.2,89.0,1005.2,291.6,1.2,1.8,303.4,0.00,14.4,16.6,"01:56:14",1
"21/11/09","02:10",1.0,16.1,89.6,1005.0,279.0,1.0,2.1,316.5,0.00,14.4,16.6,"02:06:20",1
"21/11/09","02:20",0.8,16.1,90.2,1004.5,307.5,1.2,2.0,314.6,0.00,14.5,16.6,"02:11:38",1
"21/11/09","02:30",0.6,16.1,90.8,1004.3,270.3,1.0,1.3,256.1,0.00,14.6,16.6,"02:20:42",1
"21/11/09","02:40",0.6,16.0,91.1,1004.1,282.8,0.8,1.3,279.9,0.00,14.6,16.7,"02:31:54",1
"21/11/09","02:50",0.6,16.0,91.4,1004.1,271.7,0.5,1.2,263.5,0.00,14.6,16.6,"02:41:20",1
"21/11/09","03:00",1.2,16.0,91.7,1004.1,288.0,0.8,1.3,290.8,0.00,14.7,16.6,"02:52:56",1
"21/11/09","03:10",0.2,16.0,92.0,1004.1,292.8,1.0,1.6,317.6,0.00,14.7,16.6,"03:02:24",1
"21/11/09","03:20",0.2,16.0,92.3,1004.1,279.3,1.0,1.6,268.8,0.00,14.8,16.4,"03:18:58",1
"21/11/09","03:30",0.2,16.1,92.6,1004.5,268.3,1.0,1.6,264.6,0.00,14.9,16.6,"03:28:34",1
"21/11/09","03:40",0.2,16.2,92.8,1004.1,273.0,1.0,1.3,254.0,0.00,15.1,16.4,"03:33:48",1
"21/11/09","03:50",0.4,16.2,93.0,1004.3,306.9,1.2,1.7,330.1,0.00,15.1,16.5,"03:42:50",1
"21/11/09","04:00",0.0,16.1,93.1,1003.8,287.2,0.6,1.3,310.9,0.00,15.0,16.7,"03:51:34",1
"21/11/09","04:10",0.0,16.1,93.2,1003.6,281.2,0.8,1.1,268.4,0.00,15.0,16.6,"04:05:38",1
"21/11/09","04:20",0.2,16.2,93.5,1003.6,275.3,1.1,1.6,265.3,0.00,15.2,16.5,"04:16:20",1
"21/11/09","04:30",0.4,16.3,93.7,1003.6,283.5,1.1,1.6,319.6,0.00,15.3,16.5,"04:25:20",1
"21/11/09","04:40",0.6,16.3,93.8,1003.8,290.4,1.1,1.6,257.7,0.00,15.3,16.4,"04:30:08",1
"21/11/09","04:50",0.2,16.3,93.9,1003.4,304.1,1.0,1.3,295.6,0.00,15.4,16.5,"04:44:22",1
"21/11/09","05:00",0.6,16.3,94.1,1003.6,279.6,0.8,1.2,303.2,0.00,15.4,16.5,"04:51:20",1
"21/11/09","05:10",0.4,16.2,94.2,1003.6,289.5,0.8,1.2,270.7,0.00,15.3,16.4,"05:01:36",1
"21/11/09","05:20",0.8,16.4,94.3,1003.8,300.4,1.1,1.6,309.6,0.00,15.5,16.6,"05:19:24",1
"21/11/09","05:30",0.8,16.3,94.4,1003.4,278.2,1.0,1.6,278.4,0.00,15.4,16.8,"05:20:44",1
"21/11/09","05:40",1.2,16.4,94.6,1003.1,274.5,1.0,1.4,321.4,0.00,15.6,16.3,"05:39:04",1
"21/11/09","05:50",1.2,16.4,94.7,1003.4,292.2,1.1,1.6,331.4,0.00,15.6,16.7,"05:43:12",1
"21/11/09","06:00",0.6,16.4,94.8,1003.6,267.0,1.2,2.1,259.4,0.00,15.6,16.7,"05:58:32",1
"21/11/09","06:10",1.4,16.4,94.9,1003.6,317.2,1.3,2.4,323.1,0.00,15.6,16.5,"06:03:28",1
"21/11/09","06:20",0.4,16.4,95.0,1003.6,307.0,0.7,1.2,298.2,0.00,15.6,16.6,"06:16:24",1
"21/11/09","06:30",0.2,16.4,95.1,1003.8,266.0,1.0,1.4,251.0,0.00,15.7,16.4,"06:25:28",1
"21/11/09","06:40",0.2,16.4,95.2,1003.8,261.7,1.0,1.3,253.6,0.00,15.7,16.6,"06:34:56",1
"21/11/09","06:50",0.6,16.4,95.3,1003.6,279.5,1.0,1.7,249.6,0.00,15.7,16.2,"06:41:12",1
"21/11/09","07:00",0.6,16.5,95.4,1003.6,337.1,0.8,1.6,13.8,0.00,15.8,16.4,"06:55:20",1
"21/11/09","07:10",0.2,16.5,95.4,1003.8,246.7,0.6,1.3,253.6,0.00,15.8,16.5,"07:06:58",1
"21/11/09","07:20",0.2,16.5,95.5,1003.6,289.7,0.6,1.2,283.5,0.00,15.8,16.6,"07:19:04",1
"21/11/09","07:30",0.0,16.6,95.6,1003.6,264.8,0.7,1.0,281.4,0.00,15.9,16.4,"07:26:00",1
"21/11/09","07:40",0.0,16.2,95.6,1003.8,307.3,1.3,2.9,324.6,0.00,15.5,16.6,"07:36:32",1
"21/11/09","07:50",0.0,15.9,95.9,1004.1,290.6,1.7,2.7,328.5,0.00,15.3,16.4,"07:44:48",1
"21/11/09","08:00",0.0,15.7,96.0,1004.3,299.6,2.0,4.0,321.5,0.01,15.1,16.6,"07:56:48",1
"21/11/09","08:10",0.0,15.4,96.1,1004.5,305.3,2.6,4.7,340.4,0.01,14.8,16.7,"08:09:36",1
"21/11/09","08:20",0.0,15.3,96.2,1004.3,307.0,2.6,4.1,318.2,0.00,14.7,16.6,"08:13:44",1
"21/11/09","08:30",0.0,15.1,96.1,1004.5,315.3,2.8,5.8,350.7,0.00,14.5,16.6,"08:29:08",1
"21/11/09","08:40",0.0,15.0,96.0,1004.8,321.6,3.1,5.9,323.5,0.01,14.4,16.6,"08:30:32",1
"21/11/09","08:50",0.0,15.2,95.9,1005.0,318.6,2.5,5.6,344.6,0.01,14.6,16.6,"08:43:04",1
"21/11/09","09:00",0.0,14.9,95.5,1004.8,318.6,2.6,4.9,345.4,0.00,14.2,16.7,"08:58:48",1
"21/11/09","09:10",0.0,14.7,95.4,1005.2,320.3,2.7,4.8,348.1,0.00,14.0,16.6,"09:00:16",1
"21/11/09","09:20",0.0,14.7,95.0,1005.0,320.7,2.5,4.5,318.3,0.00,13.9,16.5,"09:17:44",1
"21/11/09","09:30",0.0,14.9,94.8,1005.0,331.9,2.5,5.0,340.2,0.03,14.1,16.4,"09:27:20",1
"21/11/09","09:40",0.0,15.1,94.5,1005.0,328.5,1.7,4.1,327.2,0.05,14.3,16.5,"09:35:36",1
"21/11/09","09:50",0.0,15.3,93.9,1004.8,285.2,1.7,3.9,236.8,0.06,14.4,16.5,"09:42:00",1
"21/11/09","10:00",0.0,15.1,93.6,1005.0,329.9,2.0,3.9,314.0,0.06,14.1,16.6,"09:58:48",1
"21/11/09","10:10",0.0,15.1,93.0,1004.8,335.3,2.1,3.5,306.8,0.08,14.0,16.6,"10:02:24",1
"21/11/09","10:20",0.0,15.5,92.7,1004.8,310.1,1.8,3.9,340.9,0.09,14.4,16.5,"10:12:24",1
"21/11/09","10:30",0.0,15.2,91.8,1004.3,310.6,2.3,5.1,313.4,0.09,13.9,16.4,"10:26:08",1
"21/11/09","10:40",0.0,15.6,91.3,1004.8,312.8,1.8,3.5,346.4,0.09,14.2,16.5,"10:37:28",1
"21/11/09","10:50",0.0,15.2,90.4,1004.5,318.0,2.3,4.1,341.9,0.09,13.7,16.5,"10:44:16",1
"21/11/09","11:00",0.0,15.5,89.6,1004.5,315.1,2.2,5.5,335.1,0.10,13.8,16.5,"10:53:44",1
"21/11/09","11:10",0.0,15.7,89.1,1004.5,311.8,2.0,3.6,341.3,0.12,14.0,16.7,"11:04:40",1
"21/11/09","11:20",0.0,15.4,88.2,1004.8,308.7,2.2,4.7,325.7,0.14,13.5,16.7,"11:19:52",1
"21/11/09","11:30",0.0,15.3,88.1,1004.5,318.5,2.3,4.3,337.3,0.15,13.4,16.6,"11:26:56",1
"21/11/09","11:40",0.0,15.2,87.5,1004.5,293.6,2.1,3.6,342.3,0.12,13.2,16.6,"11:33:04",1
"21/11/09","11:50",0.0,15.0,87.1,1004.8,315.8,2.5,5.6,343.0,0.13,12.9,16.7,"11:46:24",1
"21/11/09","12:00",0.0,15.1,87.2,1004.3,314.4,2.5,4.2,323.1,0.14,13.0,16.9,"11:51:36",1
"21/11/09","12:10",0.0,15.1,86.9,1004.3,318.4,2.1,3.5,339.9,0.14,13.0,16.6,"12:06:16",1
"21/11/09","12:20",0.0,15.1,86.4,1004.1,293.9,1.7,3.7,307.8,0.12,12.9,16.7,"12:15:20",1
"21/11/09","12:30",0.0,14.9,85.9,1003.8,309.7,2.2,4.9,345.1,0.12,12.6,16.6,"12:29:36",1
"21/11/09","12:40",0.0,15.0,85.9,1003.6,327.1,2.3,3.6,337.2,0.11,12.7,16.6,"12:33:28",1
"21/11/09","12:50",0.0,15.0,85.6,1003.8,326.2,2.5,5.0,336.5,0.09,12.6,16.7,"12:45:12",1
"21/11/09","13:00",0.0,15.0,85.3,1003.4,322.0,2.0,2.9,342.6,0.10,12.6,16.5,"12:56:56",1
"21/11/09","13:10",0.0,14.9,84.8,1003.6,323.7,2.6,4.2,343.7,0.11,12.4,16.7,"13:07:20",1
"21/11/09","13:20",0.0,15.0,84.7,1003.6,321.6,2.3,3.7,328.8,0.11,12.5,16.8,"13:12:24",1
"21/11/09","13:30",0.0,15.3,84.4,1003.4,324.7,2.1,3.6,313.1,0.13,12.7,16.8,"13:21:20",1
"21/11/09","13:40",0.0,15.1,83.5,1003.4,320.4,1.8,3.4,340.8,0.11,12.4,16.8,"13:37:04",1
"21/11/09","13:50",0.0,15.3,82.7,1003.1,320.7,1.8,4.3,345.9,0.10,12.4,16.8,"13:47:36",1
"21/11/09","14:00",0.0,15.3,81.8,1003.1,324.5,2.1,3.7,344.3,0.11,12.3,16.8,"13:57:44",1
"21/11/09","14:10",0.0,15.2,80.8,1003.6,321.3,2.1,4.5,351.2,0.08,12.0,16.8,"14:08:48",1
"21/11/09","14:20",0.0,15.1,80.1,1003.4,322.6,2.1,3.3,357.8,0.09,11.7,16.9,"14:17:12",1
"21/11/09","14:30",0.0,15.1,79.4,1003.1,315.1,1.7,2.9,321.0,0.06,11.6,16.7,"14:26:32",1
"21/11/09","14:40",0.0,15.1,78.7,1003.1,314.9,1.8,4.1,339.6,0.03,11.5,16.8,"14:35:36",1
"21/11/09","14:50",0.0,14.9,79.0,1003.4,300.9,1.7,4.8,347.5,0.02,11.3,16.6,"14:44:08",1
"21/11/09","15:00",0.0,14.7,79.2,1003.6,323.3,2.0,2.9,332.5,0.02,11.2,16.7,"14:56:32",1
"21/11/09","15:10",0.0,14.5,79.6,1003.4,320.6,1.8,3.5,324.1,0.02,11.1,16.9,"15:00:16",1
"21/11/09","15:20",0.0,14.4,79.8,1003.4,333.6,2.3,3.9,341.9,0.03,11.0,16.8,"15:15:28",1
"21/11/09","15:30",0.0,14.4,79.7,1003.4,313.4,1.7,3.5,325.7,0.04,11.0,16.7,"15:24:24",1
"21/11/09","15:40",0.0,14.3,78.8,1003.4,323.2,2.3,5.0,341.0,0.02,10.7,16.7,"15:31:44",1
"21/11/09","15:50",0.0,14.3,78.6,1003.4,323.0,2.0,3.6,324.9,0.01,10.7,16.9,"15:48:24",1
"21/11/09","16:00",0.0,14.3,78.7,1003.4,323.6,2.0,3.7,334.1,0.01,10.7,16.8,"15:51:04",1
"21/11/09","16:10",0.0,14.3,78.8,1003.4,314.7,1.8,3.3,333.7,0.01,10.7,16.9,"16:03:12",1
"21/11/09","16:20",0.0,14.1,79.0,1003.1,313.6,1.6,2.7,311.2,0.00,10.6,16.8,"16:10:08",1
"21/11/09","16:30",0.0,14.0,79.1,1003.1,318.4,2.1,4.3,338.9,0.00,10.5,16.6,"16:25:52",1
"21/11/09","16:40",0.0,14.0,79.2,1003.1,318.3,1.6,2.6,341.8,0.00,10.5,16.4,"16:32:32",1
"21/11/09","16:50",0.0,13.9,79.4,1002.9,317.5,1.6,3.1,339.0,0.00,10.4,16.7,"16:43:44",1
"21/11/09","17:00",0.0,13.8,79.6,1003.4,303.1,1.5,2.7,258.3,0.00,10.4,16.7,"16:51:04",1
"21/11/09","17:10",0.0,13.8,80.0,1003.6,306.2,1.1,1.9,336.8,0.00,10.5,16.7,"17:00:08",1
"21/11/09","17:20",0.0,13.7,80.5,1003.4,303.4,1.0,1.9,335.0,0.00,10.4,16.6,"17:14:00",1
"21/11/09","17:30",0.0,13.5,80.8,1003.1,321.7,1.3,1.9,347.0,0.00,10.3,16.9,"17:21:28",1
"21/11/09","17:40",0.0,13.5,80.9,1003.6,326.9,1.3,2.0,333.8,0.00,10.3,16.7,"17:35:46",1
"21/11/09","17:50",0.0,13.4,81.3,1003.6,328.8,1.3,2.6,325.0,0.00,10.3,16.7,"17:43:40",1
"21/11/09","18:00",0.0,13.4,80.9,1003.6,313.7,1.8,3.6,327.9,0.00,10.2,16.7,"17:56:58",1
"21/11/09","18:10",0.0,13.5,80.4,1003.8,291.7,1.7,3.7,320.8,0.00,10.2,16.8,"18:04:34",1
"21/11/09","18:20",0.0,13.4,80.5,1004.1,283.9,1.7,3.1,321.4,0.00,10.2,16.5,"18:11:20",1
"21/11/09","18:30",0.0,13.1,81.4,1003.8,303.9,1.5,2.7,276.4,0.00,10.0,16.5,"18:21:48",1
"21/11/09","18:40",0.0,12.9,81.9,1004.3,307.2,1.2,3.2,342.5,0.00,9.9,16.6,"18:30:26",1
"21/11/09","18:50",0.0,12.9,81.7,1004.1,320.0,1.7,3.1,338.2,0.00,9.9,16.4,"18:41:38",1
"21/11/09","19:00",0.0,12.9,80.9,1004.3,323.5,1.6,3.9,356.8,0.00,9.7,16.6,"18:58:18",1
"21/11/09","19:10",0.0,13.1,80.1,1004.1,322.5,1.5,3.1,332.7,0.00,9.8,16.7,"19:07:12",1
"21/11/09","19:20",0.0,13.1,80.0,1004.1,325.5,1.3,2.7,331.5,0.00,9.8,16.4,"19:10:40",1
"21/11/09","19:30",0.0,13.1,80.3,1003.4,315.8,1.1,3.1,318.8,0.00,9.8,16.4,"19:27:10",1
"21/11/09","19:40",0.0,12.9,80.5,1003.6,312.1,0.8,1.8,271.4,0.00,9.7,16.2,"19:38:46",1
"21/11/09","19:50",0.0,13.0,80.3,1003.6,280.7,1.5,3.1,268.8,0.00,9.7,16.5,"19:49:22",1
"21/11/09","20:00",0.0,13.1,80.1,1003.6,302.7,1.5,3.7,319.8,0.00,9.8,16.3,"19:51:14",1
"21/11/09","20:10",0.0,13.0,80.2,1003.4,313.8,1.5,4.1,334.8,0.00,9.7,16.4,"20:04:12",1
"21/11/09","20:20",0.0,13.0,80.4,1003.4,313.5,1.3,2.6,294.7,0.00,9.7,16.4,"20:14:14",1
"21/11/09","20:30",0.0,12.9,80.6,1003.1,315.6,1.3,2.9,338.0,0.00,9.7,16.4,"20:20:02",1
"21/11/09","20:40",0.0,12.8,81.2,1002.9,348.2,0.8,1.9,339.7,0.00,9.7,16.3,"20:33:44",1
"21/11/09","20:50",0.0,12.5,81.9,1003.4,300.4,0.8,1.7,277.8,0.00,9.5,16.3,"20:47:18",1
"21/11/09","21:00",0.0,12.5,82.5,1002.9,330.2,1.1,2.0,351.5,0.00,9.6,16.3,"20:55:02",1
"21/11/09","21:10",0.0,12.4,83.0,1002.9,319.4,1.0,1.4,309.5,0.00,9.6,16.3,"21:08:38",1
"21/11/09","21:20",0.0,12.3,83.8,1002.9,313.8,1.5,1.8,313.2,0.00,9.7,16.2,"21:14:18",1
"21/11/09","21:30",0.0,12.1,84.7,1003.1,325.1,1.5,2.2,334.6,0.00,9.6,16.4,"21:22:46",1
"21/11/09","21:40",0.0,12.2,85.3,1002.9,338.2,1.1,1.8,340.2,0.00,9.8,16.1,"21:36:56",1
"21/11/09","21:50",0.0,12.1,85.6,1003.1,320.0,1.3,2.0,338.9,0.00,9.8,16.2,"21:42:54",1
"21/11/09","22:00",0.0,12.1,86.0,1003.1,310.0,1.3,2.4,312.4,0.00,9.9,16.2,"21:54:14",1
"21/11/09","22:10",0.0,12.1,86.2,1002.6,316.8,1.0,2.1,334.3,0.00,9.9,16.2,"22:01:02",1
"21/11/09","22:20",0.0,11.9,86.2,1002.4,304.6,0.6,1.0,326.4,0.00,9.7,16.3,"22:16:02",1
"21/11/09","22:30",0.0,11.8,86.4,1002.6,309.2,1.0,1.6,316.0,0.00,9.6,16.0,"22:21:30",1
"21/11/09","22:40",0.0,11.6,86.6,1002.6,312.9,1.1,1.9,319.0,0.00,9.5,16.0,"22:35:32",1
"21/11/09","22:50",0.0,11.2,86.9,1002.6,311.1,1.3,2.2,305.8,0.00,9.1,16.0,"22:41:36",1
"21/11/09","23:00",0.0,10.7,87.3,1002.4,310.4,1.3,1.8,294.5,0.00,8.7,16.2,"22:53:52",1
"21/11/09","23:10",0.0,10.4,87.8,1002.4,296.4,1.1,1.7,314.5,0.00,8.5,16.1,"23:05:20",1
"21/11/09","23:20",0.0,10.3,88.4,1002.6,292.0,1.3,1.9,309.8,0.00,8.5,16.0,"23:16:00",1
"21/11/09","23:30",0.0,10.1,88.8,1001.9,308.5,1.6,2.0,324.1,0.00,8.4,15.8,"23:24:24",1
"21/11/09","23:40",0.0,9.8,89.2,1002.4,310.7,1.5,2.2,308.6,0.00,8.1,15.8,"23:30:32",1
"21/11/09","23:50",0.0,9.5,89.8,1002.6,298.0,1.5,2.1,322.4,0.00,8.0,15.9,"23:45:44",1
"21/11/09","24:00",0.0,9.3,90.1,1002.6,286.5,1.2,1.4,297.8,0.00,7.8,15.8,"23:50:16",1
